| time (UTC) | temp F | wind direction | speed MPH | gust MPH | rain 1hr in | rain 24hr in | rain mn in | humidity % | barometer mb |
| 20260903072102 | 65 | 227 | 2.0 | 5.0 | 0.00 | 0.08 | 0.00 | 1014.1 | |
| 20260903071531 | 65 | 200 | 0.0 | 5.0 | 0.00 | 0.08 | 0.00 | 1014.2 | |
| 20260903071031 | 65 | 154 | 0.0 | 5.0 | 0.00 | 0.08 | 0.00 | 1014.2 | |
| 20260903070531 | 65 | 154 | 0.0 | 5.0 | 0.00 | 0.08 | 0.00 | 1014.1 | |
| 20260903070031 | 65 | 154 | 0.0 | 3.0 | 0.00 | 0.08 | 0.00 | 1014.2 | |
| 20260903065531 | 65 | 154 | 0.0 | 3.0 | 0.00 | 0.08 | 0.00 | 1014.2 | |
| 20260903065032 | 65 | 154 | 2.0 | 5.0 | 0.00 | 0.08 | 0.00 | 1014.3 | |
| 20260903064531 | 65 | 154 | 0.0 | 8.0 | 0.00 | 0.08 | 0.00 | 1014.2 | |
| 20260903064031 | 65 | 196 | 1.0 | 8.0 | 0.00 | 0.08 | 0.00 | 1014.4 | |
| 20260903063600 | 65 | 172 | 0.0 | 5.0 | 0.00 | 0.08 | 0.00 | 1014.4 | |
| 20260903063031 | 65 | 149 | 0.0 | 6.0 | 0.00 | 0.08 | 0.00 | 1014.3 | |
| 20260903062532 | 65 | 316 | 0.0 | 6.0 | 0.00 | 0.08 | 0.00 | 1014.3 | |
| 20260903062031 | 65 | 172 | 0.0 | 6.0 | 0.00 | 0.08 | 0.00 | 1014.4 | |
| 20260903061531 | 65 | 171 | 0.0 | 6.0 | 0.00 | 0.08 | 0.00 | 1014.5 | |
| 20260903061031 | 65 | 328 | 0.0 | 5.0 | 0.00 | 0.08 | 0.00 | 1014.5 | |
| 20260903060531 | 65 | 294 | 2.0 | 5.0 | 0.00 | 0.08 | 0.00 | 1014.5 | |
| 20260903060031 | 65 | 160 | 1.0 | 5.0 | 0.00 | 0.08 | 0.00 | 1014.6 | |
| 20260903055531 | 65 | 158 | 0.0 | 6.0 | 0.00 | 0.08 | 0.00 | 1014.7 | |
| 20260903055030 | 65 | 164 | 0.0 | 6.0 | 0.00 | 0.08 | 0.00 | 1014.8 | |
| 20260903054530 | 65 | 164 | 0.0 | 6.0 | 0.00 | 0.08 | 0.00 | 1014.8 | |
| 20260903054031 | 65 | 164 | 0.0 | 6.0 | 0.00 | 0.08 | 0.00 | 1014.8 | |
| 20260903053531 | 65 | 308 | 3.0 | 6.0 | 0.00 | 0.08 | 0.00 | 1015.0 | |
| 20260903053032 | 65 | 189 | 2.0 | 6.0 | 0.00 | 0.08 | 0.00 | 1014.9 | |
| 20260903052531 | 65 | 233 | 0.0 | 6.0 | 0.00 | 0.08 | 0.00 | 1015.0 | |
| 20260903052031 | 65 | 276 | 0.0 | 5.0 | 0.00 | 0.09 | 0.00 | 1015.0 | |
| 20260903051531 | 65 | 269 | 0.0 | 6.0 | 0.00 | 0.09 | 0.00 | 1015.3 | |
| 20260903051046 | 65 | 227 | 0.0 | 6.0 | 0.00 | 0.09 | 0.00 | 1015.1 | |
| 20260903050530 | 65 | 152 | 0.0 | 6.0 | 0.00 | 0.09 | 0.00 | 1015.3 | |
| 20260903050031 | 65 | 152 | 0.0 | 6.0 | 0.00 | 0.09 | 0.00 | 1015.3 | |
| 20260903045531 | 65 | 136 | 0.0 | 6.0 | 0.00 | 0.09 | 0.00 | 1015.2 | |
| 20260903045032 | 65 | 264 | 0.0 | 6.0 | 0.00 | 0.09 | 0.00 | 1015.3 | |
| 20260903044531 | 65 | 271 | 0.0 | 6.0 | 0.00 | 0.09 | 0.00 | 1015.5 | |
| 20260903044031 | 65 | 174 | 2.0 | 9.0 | 0.01 | 0.09 | 0.00 | 1015.5 | |
| 20260903043531 | 65 | 168 | 5.0 | 9.0 | 0.01 | 0.09 | 0.00 | 1015.4 | |
| 20260903043047 | 65 | 179 | 0.0 | 9.0 | 0.01 | 0.09 | 0.00 | 1014.9 | |
| 20260903042530 | 65 | 16 | 0.0 | 9.0 | 0.01 | 0.09 | 0.00 | 1015.2 | |
| 20260903042031 | 65 | 197 | 0.0 | 13.0 | 0.01 | 0.09 | 0.00 | 1014.8 | |
| 20260903041530 | 65 | 161 | 0.0 | 13.0 | 0.01 | 0.09 | 0.00 | 1015.0 | |
| 20260903041030 | 65 | 185 | 0.0 | 8.0 | 0.01 | 0.09 | 0.00 | 1015.3 | |
| 20260903040531 | 66 | 198 | 1.0 | 8.0 | 0.01 | 0.09 | 0.00 | 1015.4 | |
| 20260903040031 | 66 | 215 | 1.0 | 5.0 | 0.01 | 0.09 | 0.00 | 1015.7 | |
| 20260903035601 | 66 | 280 | 0.0 | 5.0 | 0.01 | 0.09 | 0.09 | 1015.6 | |
| 20260903035030 | 66 | 194 | 1.0 | 5.0 | 0.01 | 0.09 | 0.09 | 1015.7 | |
| 20260903034531 | 66 | 351 | 0.0 | 11.0 | 0.01 | 0.09 | 0.09 | 1015.6 | |
| 20260903034030 | 66 | 190 | 0.0 | 11.0 | 0.00 | 0.08 | 0.08 | 1015.8 | |
| 20260903033546 | 66 | 357 | 2.0 | 5.0 | 0.00 | 0.09 | 0.08 | 1015.8 | |
| 20260903033030 | 66 | 193 | 2.0 | 5.0 | 0.00 | 0.09 | 0.08 | 1016.3 | |
| 20260903032531 | 67 | 285 | 0.0 | 5.0 | 0.00 | 0.09 | 0.08 | 1016.5 | |
| 20260903032045 | 67 | 143 | 1.0 | 5.0 | 0.00 | 0.09 | 0.08 | 1016.3 | |
| 20260903031530 | 67 | 219 | 0.0 | 8.0 | 0.00 | 0.09 | 0.08 | 1016.3 | |
| 20260903031031 | 67 | 182 | 1.0 | 8.0 | 0.00 | 0.09 | 0.08 | 1016.1 | |
| 20260903030545 | 67 | 282 | 1.0 | 6.0 | 0.00 | 0.09 | 0.08 | 1016.2 | |
| 20260903030031 | 67 | 187 | 1.0 | 8.0 | 0.00 | 0.09 | 0.08 | 1016.3 | |
| 20260903025545 | 67 | 168 | 5.0 | 8.0 | 0.00 | 0.09 | 0.08 | 1016.4 | |
| 20260903025100 | 67 | 214 | 5.0 | 6.0 | 0.00 | 0.09 | 0.08 | 1016.5 | |
| 20260903024532 | 67 | 214 | 0.0 | 5.0 | 0.00 | 0.09 | 0.08 | 1016.6 | |
| 20260903024031 | 67 | 180 | 2.0 | 6.0 | 0.00 | 0.09 | 0.08 | 1016.8 | |
| 20260903023531 | 67 | 291 | 0.0 | 6.0 | 0.00 | 0.09 | 0.08 | 1016.8 | |
| 20260903023031 | 67 | 314 | 2.0 | 8.0 | 0.00 | 0.09 | 0.08 | 1016.7 | |
| 20260903022530 | 67 | 192 | 0.0 | 13.0 | 0.00 | 0.09 | 0.08 | 1016.6 | |
| 20260903022031 | 67 | 324 | 6.0 | 13.0 | 0.00 | 0.09 | 0.08 | 1016.8 | |
| 20260903021530 | 67 | 166 | 1.0 | 6.0 | 0.00 | 0.09 | 0.08 | 1016.8 | |
| 20260903021030 | 67 | 254 | 1.0 | 8.0 | 0.00 | 0.09 | 0.08 | 1017.0 | |
| 20260903020600 | 67 | 146 | 1.0 | 8.0 | 0.00 | 0.09 | 0.08 | 1017.2 | |
| 20260903020046 | 67 | 210 | 1.0 | 6.0 | 0.00 | 0.09 | 0.08 | 1017.4 | |
| 20260903015530 | 67 | 0 | 1.0 | 8.0 | 0.00 | 0.09 | 0.08 | 1017.4 | |
| 20260903015030 | 67 | 160 | 2.0 | 8.0 | 0.00 | 0.09 | 0.08 | 1017.6 | |
| 20260903014530 | 67 | 212 | 1.0 | 8.0 | 0.00 | 0.09 | 0.08 | 1017.5 | |
| 20260903014100 | 67 | 193 | 0.0 | 5.0 | 0.00 | 0.09 | 0.08 | 1017.5 | |
| 20260903013545 | 67 | 190 | 2.0 | 8.0 | 0.00 | 0.09 | 0.08 | 1017.5 | |
| 20260903013031 | 67 | 304 | 0.0 | 8.0 | 0.00 | 0.09 | 0.08 | 1017.6 | |
| 20260903012530 | 67 | 216 | 0.0 | 5.0 | 0.00 | 0.09 | 0.08 | 1017.7 | |
| 20260903012045 | 67 | 216 | 0.0 | 5.0 | 0.00 | 0.09 | 0.08 | 1018.0 | |
| 20260903011530 | 67 | 252 | 0.0 | 5.0 | 0.00 | 0.09 | 0.08 | 1018.0 | |
| 20260903011030 | 67 | 254 | 0.0 | 5.0 | 0.00 | 0.09 | 0.08 | 1018.0 | |
| 20260903010530 | 67 | 186 | 0.0 | 5.0 | 0.00 | 0.09 | 0.08 | 1018.1 | |
| 20260903010115 | 67 | 180 | 0.0 | 5.0 | 0.00 | 0.09 | 0.08 | 1018.2 | |
| 20260903005545 | 68 | 289 | 0.0 | 5.0 | 0.00 | 0.09 | 0.08 | 1018.0 | |
| 20260903005045 | 68 | 290 | 0.0 | 9.0 | 0.00 | 0.09 | 0.08 | 1018.2 | |
| 20260903004530 | 68 | 315 | 2.0 | 9.0 | 0.00 | 0.09 | 0.08 | 1018.2 | |
| 20260903004030 | 68 | 222 | 0.0 | 6.0 | 0.00 | 0.09 | 0.08 | 1018.1 | |
| 20260903003530 | 68 | 222 | 0.0 | 6.0 | 0.00 | 0.09 | 0.08 | 1018.0 | |
| 20260903003030 | 68 | 152 | 2.0 | 6.0 | 0.00 | 0.09 | 0.08 | 1017.9 | |
| 20260903002530 | 68 | 344 | 0.0 | 5.0 | 0.00 | 0.09 | 0.08 | 1017.9 | |
| 20260903002030 | 68 | 296 | 0.0 | 3.0 | 0.00 | 0.09 | 0.08 | 1017.8 | |
| 20260903001600 | 68 | 296 | 1.0 | 5.0 | 0.00 | 0.09 | 0.08 | 1017.7 | |
| 20260903001031 | 68 | 296 | 0.0 | 5.0 | 0.00 | 0.09 | 0.08 | 1017.6 | |
| 20260903000601 | 68 | 296 | 0.0 | 5.0 | 0.00 | 0.09 | 0.08 | 1017.2 | |
| 20260903000030 | 68 | 256 | 1.0 | 6.0 | 0.00 | 0.09 | 0.08 | 1017.1 | |
| 20260902235600 | 68 | 289 | 0.0 | 6.0 | 0.00 | 0.09 | 0.08 | 1016.8 | |
| 20260902235030 | 68 | 178 | 1.0 | 3.0 | 0.00 | 0.09 | 0.08 | 1016.6 | |
| 20260902234530 | 68 | 178 | 0.0 | 5.0 | 0.00 | 0.09 | 0.08 | 1016.6 | |
| 20260902234030 | 68 | 178 | 2.0 | 6.0 | 0.00 | 0.09 | 0.08 | 1016.8 | |
| 20260902233530 | 68 | 178 | 1.0 | 9.0 | 0.00 | 0.09 | 0.08 | 1016.6 | |
| 20260902233030 | 68 | 188 | 1.0 | 9.0 | 0.00 | 0.09 | 0.08 | 1016.5 | |
| 20260902232530 | 68 | 235 | 0.0 | 3.0 | 0.00 | 0.09 | 0.08 | 1016.3 | |
| 20260902232030 | 68 | 236 | 1.0 | 3.0 | 0.00 | 0.09 | 0.08 | 1016.5 | |
| 20260902231530 | 68 | 236 | 0.0 | 3.0 | 0.00 | 0.09 | 0.08 | 1017.0 | |
| 20260902231030 | 68 | 236 | 0.0 | 3.0 | 0.00 | 0.09 | 0.08 | 1017.5 | |
| 20260902230530 | 68 | 236 | 0.0 | 2.0 | 0.00 | 0.09 | 0.08 | 1017.7 | |
| 20260902230031 | 69 | 234 | 0.0 | 3.0 | 0.00 | 0.09 | 0.08 | 1017.9 | |
| 20260902225545 | 69 | 232 | 0.0 | 3.0 | 0.00 | 0.09 | 0.08 | 1017.9 | |
| 20260902225100 | 69 | 232 | 0.0 | 0.0 | 0.00 | 0.09 | 0.08 | 1018.2 | |
| 20260902224530 | 69 | 232 | 0.0 | 3.0 | 0.00 | 0.09 | 0.08 | 1018.3 | |
| 20260902224030 | 69 | 232 | 0.0 | 3.0 | 0.00 | 0.09 | 0.08 | 1018.4 | |
| 20260902223530 | 69 | 298 | 0.0 | 3.0 | 0.00 | 0.09 | 0.08 | 1018.5 | |
| 20260902223030 | 69 | 244 | 0.0 | 6.0 | 0.00 | 0.09 | 0.08 | 1018.5 | |
| 20260902222530 | 70 | 259 | 0.0 | 6.0 | 0.00 | 0.09 | 0.08 | 1018.5 | |
| 20260902222031 | 70 | 132 | 0.0 | 5.0 | 0.00 | 0.09 | 0.08 | 1018.6 | |
| 20260902221601 | 70 | 121 | 2.0 | 5.0 | 0.00 | 0.09 | 0.08 | 1018.6 | |
| 20260902221030 | 70 | 233 | 0.0 | 3.0 | 0.00 | 0.09 | 0.08 | 1018.7 | |
| 20260902220545 | 70 | 215 | 0.0 | 5.0 | 0.00 | 0.09 | 0.08 | 1018.7 | |
| 20260902220030 | 70 | 214 | 0.0 | 5.0 | 0.00 | 0.09 | 0.08 | 1019.0 | |
| 20260902215530 | 70 | 199 | 0.0 | 5.0 | 0.00 | 0.09 | 0.08 | 1019.0 | |
| 20260902215030 | 70 | 193 | 0.0 | 5.0 | 0.00 | 0.09 | 0.08 | 1019.1 | |
| 20260902214531 | 70 | 181 | 1.0 | 8.0 | 0.00 | 0.09 | 0.08 | 1019.2 | |
| 20260902214030 | 70 | 179 | 0.0 | 8.0 | 0.00 | 0.09 | 0.08 | 1019.0 | |
| 20260902213531 | 70 | 176 | 0.0 | 8.0 | 0.00 | 0.09 | 0.08 | 1018.9 | |
| 20260902213030 | 70 | 327 | 2.0 | 6.0 | 0.00 | 0.09 | 0.08 | 1018.8 | |
| 20260902212530 | 70 | 322 | 1.0 | 6.0 | 0.00 | 0.09 | 0.08 | 1019.0 | |
| 20260902212031 | 70 | 211 | 2.0 | 6.0 | 0.00 | 0.09 | 0.08 | 1019.0 | |
| 20260902211530 | 70 | 188 | 1.0 | 6.0 | 0.00 | 0.09 | 0.08 | 1019.1 | |
| 20260902211030 | 70 | 178 | 0.0 | 6.0 | 0.00 | 0.09 | 0.08 | 1019.3 | |
| 20260902210530 | 71 | 274 | 2.0 | 5.0 | 0.00 | 0.09 | 0.08 | 1019.2 | |
| 20260902210045 | 71 | 201 | 0.0 | 6.0 | 0.00 | 0.09 | 0.08 | 1019.2 | |
| 20260902205530 | 71 | 200 | 0.0 | 6.0 | 0.00 | 0.09 | 0.08 | 1019.1 | |
| 20260902205030 | 71 | 206 | 2.0 | 6.0 | 0.00 | 0.09 | 0.08 | 1019.0 | |
| 20260902204530 | 71 | 206 | 1.0 | 16.0 | 0.00 | 0.09 | 0.08 | 1019.0 | |
| 20260902204101 | 71 | 195 | 2.0 | 16.0 | 0.00 | 0.09 | 0.08 | 1019.0 | |
| 20260902203531 | 71 | 327 | 3.0 | 9.0 | 0.00 | 0.09 | 0.08 | 1018.8 | |
| 20260902203031 | 71 | 174 | 1.0 | 9.0 | 0.00 | 0.09 | 0.08 | 1018.6 | |
| 20260902202546 | 71 | 213 | 3.0 | 9.0 | 0.00 | 0.09 | 0.08 | 1018.7 | |
| 20260902202030 | 71 | 301 | 6.0 | 9.0 | 0.00 | 0.09 | 0.08 | 1019.0 | |
| 20260902201530 | 71 | 172 | 2.0 | 8.0 | 0.00 | 0.09 | 0.08 | 1019.0 | |
| 20260902201045 | 71 | 183 | 0.0 | 5.0 | 0.00 | 0.09 | 0.08 | 1019.1 | |
| 20260902200600 | 71 | 284 | 0.0 | 5.0 | 0.00 | 0.09 | 0.08 | 1019.2 | |
| 20260902200030 | 71 | 284 | 1.0 | 5.0 | 0.00 | 0.09 | 0.08 | 1019.5 | |
| 20260902195530 | 70 | 285 | 3.0 | 5.0 | 0.00 | 0.09 | 0.08 | 1019.3 | |
| 20260902195031 | 70 | 187 | 0.0 | 6.0 | 0.00 | 0.09 | 0.08 | 1019.1 | |
| 20260902194530 | 70 | 265 | 0.0 | 6.0 | 0.00 | 0.09 | 0.08 | 1019.3 | |
| 20260902194030 | 70 | 204 | 0.0 | 8.0 | 0.00 | 0.09 | 0.08 | 1019.4 | |
| 20260902193531 | 70 | 207 | 1.0 | 8.0 | 0.00 | 0.09 | 0.08 | 1019.4 | |
| 20260902193030 | 70 | 232 | 3.0 | 6.0 | 0.00 | 0.09 | 0.08 | 1019.2 | |
| 20260902192530 | 70 | 223 | 1.0 | 6.0 | 0.00 | 0.09 | 0.08 | 1019.1 | |
| 20260902192030 | 70 | 153 | 0.0 | 5.0 | 0.00 | 0.09 | 0.08 | 1019.1 | |
| 20260902191530 | 70 | 153 | 0.0 | 5.0 | 0.00 | 0.09 | 0.08 | 1019.3 | |
| 20260902191030 | 70 | 147 | 0.0 | 3.0 | 0.01 | 0.09 | 0.08 | 1019.3 | |
| 20260902190530 | 69 | 147 | 0.0 | 6.0 | 0.07 | 0.09 | 0.08 | 1019.3 | |
| 20260902190100 | 69 | 147 | 2.0 | 6.0 | 0.07 | 0.09 | 0.08 | 1019.5 | |
| 20260902185530 | 69 | 250 | 0.0 | 3.0 | 0.07 | 0.09 | 0.08 | 1019.6 | |
| 20260902185045 | 69 | 250 | 0.0 | 3.0 | 0.07 | 0.09 | 0.08 | 1019.7 | |
| 20260902184530 | 69 | 250 | 2.0 | 5.0 | 0.07 | 0.09 | 0.08 | 1019.5 | |
| 20260902184030 | 68 | 250 | 0.0 | 5.0 | 0.07 | 0.09 | 0.08 | 1019.4 | |
| 20260902183529 | 67 | 249 | 0.0 | 5.0 | 0.07 | 0.09 | 0.08 | 1019.4 | |
| 20260902183044 | 67 | 207 | 0.0 | 0.0 | 0.07 | 0.09 | 0.08 | 1019.3 | |
| 20260902182530 | 67 | 207 | 0.0 | 0.0 | 0.07 | 0.09 | 0.08 | 1019.4 | |
| 20260902182031 | 67 | 207 | 0.0 | 2.0 | 0.07 | 0.09 | 0.08 | 1019.7 | |
| 20260902181530 | 68 | 207 | 0.0 | 2.0 | 0.07 | 0.09 | 0.08 | 1020.0 | |
| 20260902181030 | 68 | 207 | 0.0 | 0.0 | 0.06 | 0.08 | 0.07 | 1020.1 | |
| 20260902180530 | 68 | 208 | 0.0 | 3.0 | 0.00 | 0.02 | 0.01 | 1019.9 | |
| 20260902180030 | 68 | 208 | 0.0 | 5.0 | 0.00 | 0.02 | 0.01 | 1020.0 | |
| 20260902175530 | 68 | 207 | 0.0 | 5.0 | 0.00 | 0.02 | 0.01 | 1020.0 | |
| 20260902175029 | 68 | 208 | 1.0 | 5.0 | 0.00 | 0.02 | 0.01 | 1020.2 | |
| 20260902174530 | 68 | 298 | 0.0 | 6.0 | 0.00 | 0.02 | 0.01 | 1020.2 | |
| 20260902174029 | 68 | 298 | 0.0 | 8.0 | 0.00 | 0.02 | 0.01 | 1020.0 | |
| 20260902173600 | 68 | 195 | 1.0 | 8.0 | 0.00 | 0.02 | 0.01 | 1019.7 | |
| 20260902173030 | 69 | 253 | 0.0 | 3.0 | 0.00 | 0.02 | 0.01 | 1019.5 | |
| 20260902172530 | 69 | 253 | 0.0 | 3.0 | 0.00 | 0.02 | 0.01 | 1019.6 | |
| 20260902172030 | 69 | 253 | 0.0 | 0.0 | 0.00 | 0.02 | 0.01 | 1019.7 | |
| 20260902171530 | 69 | 253 | 0.0 | 5.0 | 0.00 | 0.02 | 0.01 | 1019.7 | |
| 20260902171031 | 69 | 253 | 0.0 | 5.0 | 0.00 | 0.02 | 0.01 | 1019.6 | |
| 20260902170530 | 69 | 253 | 0.0 | 2.0 | 0.00 | 0.02 | 0.01 | 1019.5 | |
| 20260902170030 | 69 | 253 | 0.0 | 3.0 | 0.00 | 0.02 | 0.01 | 1019.8 | |
| 20260902165530 | 69 | 253 | 0.0 | 3.0 | 0.00 | 0.02 | 0.01 | 1020.0 | |
| 20260902165031 | 69 | 253 | 0.0 | 2.0 | 0.00 | 0.02 | 0.01 | 1019.8 | |
| 20260902164600 | 69 | 253 | 0.0 | 3.0 | 0.00 | 0.02 | 0.01 | 1020.1 | |
| 20260902164030 | 68 | 253 | 0.0 | 3.0 | 0.00 | 0.02 | 0.01 | 1020.1 | |
| 20260902163530 | 69 | 253 | 0.0 | 2.0 | 0.00 | 0.02 | 0.01 | 1020.2 | |
| 20260902163030 | 69 | 253 | 0.0 | 0.0 | 0.00 | 0.02 | 0.01 | 1020.2 | |
| 20260902162530 | 69 | 253 | 0.0 | 3.0 | 0.00 | 0.02 | 0.01 | 1020.3 | |
| 20260902162059 | 69 | 253 | 0.0 | 3.0 | 0.00 | 0.02 | 0.01 | 1020.3 | |
| 20260902161530 | 69 | 253 | 0.0 | 3.0 | 0.00 | 0.02 | 0.01 | 1020.4 | |
| 20260902161030 | 68 | 253 | 0.0 | 3.0 | 0.00 | 0.02 | 0.01 | 1020.2 | |
| 20260902160530 | 68 | 253 | 0.0 | 3.0 | 0.00 | 0.02 | 0.01 | 1020.3 | |
| 20260902160029 | 68 | 253 | 0.0 | 3.0 | 0.00 | 0.02 | 0.01 | 1020.2 | |
| 20260902155529 | 68 | 253 | 1.0 | 5.0 | 0.00 | 0.02 | 0.01 | 1020.4 | |
| 20260902155030 | 68 | 253 | 1.0 | 5.0 | 0.00 | 0.02 | 0.01 | 1020.3 | |
| 20260902154531 | 67 | 253 | 0.0 | 0.0 | 0.00 | 0.02 | 0.01 | 1020.4 | |
| 20260902154030 | 67 | 253 | 0.0 | 2.0 | 0.00 | 0.02 | 0.01 | 1020.3 | |
| 20260902153616 | 67 | 253 | 0.0 | 2.0 | 0.00 | 0.02 | 0.01 | 1020.4 | |
| 20260902153030 | 67 | 253 | 1.0 | 3.0 | 0.00 | 0.02 | 0.01 | 1020.6 | |
| 20260902152559 | 67 | 253 | 0.0 | 3.0 | 0.00 | 0.02 | 0.01 | 1020.8 | |
| 20260902152059 | 67 | 253 | 0.0 | 3.0 | 0.00 | 0.02 | 0.01 | 1020.7 | |
| 20260902151529 | 67 | 253 | 0.0 | 3.0 | 0.00 | 0.02 | 0.01 | 1020.8 | |
| 20260902151030 | 67 | 253 | 2.0 | 3.0 | 0.00 | 0.02 | 0.01 | 1020.7 | |
| 20260902150530 | 67 | 253 | 0.0 | 3.0 | 0.00 | 0.02 | 0.01 | 1020.6 | |
| 20260902150030 | 67 | 253 | 0.0 | 3.0 | 0.00 | 0.02 | 0.01 | 1020.5 | |
| 20260902145534 | 67 | 253 | 0.0 | 0.0 | 0.00 | 0.04 | 0.01 | 1020.7 | |
| 20260902145029 | 67 | 253 | 0.0 | 0.0 | 0.00 | 0.08 | 0.01 | 1020.6 | |
| 20260902144529 | 67 | 253 | 0.0 | 0.0 | 0.00 | 0.19 | 0.01 | 1020.7 | |
| 20260902144059 | 67 | 253 | 0.0 | 0.0 | 0.00 | 0.20 | 0.01 | 1020.9 | |
| 20260902143531 | 67 | 253 | 0.0 | 3.0 | 0.00 | 0.20 | 0.01 | 1020.9 | |
| 20260902143045 | 67 | 253 | 0.0 | 3.0 | 0.00 | 0.20 | 0.01 | 1021.0 | |
| 20260902142531 | 67 | 253 | 1.0 | 3.0 | 0.00 | 0.20 | 0.01 | 1020.9 | |
| 20260902142030 | 67 | 253 | 0.0 | 3.0 | 0.00 | 0.20 | 0.01 | 1020.8 | |
| 20260902141529 | 67 | 253 | 1.0 | 3.0 | 0.00 | 0.21 | 0.01 | 1020.7 | |
| 20260902141029 | 67 | 253 | 0.0 | 0.0 | 0.00 | 0.22 | 0.01 | 1020.7 | |
| 20260902140529 | 66 | 253 | 0.0 | 3.0 | 0.00 | 0.23 | 0.01 | 1020.6 | |
| 20260902140029 | 66 | 253 | 0.0 | 3.0 | 0.00 | 0.24 | 0.01 | 1020.8 | |
| 20260902135530 | 66 | 253 | 0.0 | 3.0 | 0.00 | 0.24 | 0.01 | 1020.8 | |
| 20260902135029 | 66 | 253 | 0.0 | 3.0 | 0.00 | 0.24 | 0.01 | 1020.5 | |
| 20260902134529 | 66 | 253 | 0.0 | 3.0 | 0.00 | 0.24 | 0.01 | 1020.5 | |
| 20260902134030 | 66 | 253 | 0.0 | 0.0 | 0.00 | 0.24 | 0.01 | 1020.5 | |
| 20260902133529 | 66 | 253 | 0.0 | 0.0 | 0.00 | 0.24 | 0.01 | 1020.3 | |
| 20260902133029 | 66 | 253 | 0.0 | 5.0 | 0.00 | 0.24 | 0.01 | 1020.4 | |
| 20260902132530 | 66 | 253 | 0.0 | 5.0 | 0.00 | 0.24 | 0.01 | 1020.6 | |
| 20260902132029 | 65 | 253 | 0.0 | 0.0 | 0.00 | 0.24 | 0.01 | 1020.5 | |
| 20260902131530 | 65 | 253 | 0.0 | 0.0 | 0.00 | 0.24 | 0.01 | 1020.5 | |
| 20260902131029 | 65 | 253 | 0.0 | 0.0 | 0.00 | 0.24 | 0.01 | 1020.4 | |
| 20260902130529 | 65 | 253 | 0.0 | 0.0 | 0.00 | 0.24 | 0.01 | 1020.2 | |
| 20260902130029 | 65 | 253 | 0.0 | 0.0 | 0.00 | 0.24 | 0.01 | 1019.9 | |
| 20260902125529 | 65 | 253 | 0.0 | 0.0 | 0.00 | 0.24 | 0.01 | 1020.2 | |
| 20260902125029 | 65 | 253 | 0.0 | 0.0 | 0.00 | 0.24 | 0.01 | 1020.0 | |
| 20260902124529 | 65 | 253 | 0.0 | 0.0 | 0.00 | 0.24 | 0.01 | 1020.0 | |
| 20260902124029 | 65 | 253 | 0.0 | 0.0 | 0.00 | 0.26 | 0.01 | 1019.9 | |
| 20260902123529 | 65 | 253 | 0.0 | 0.0 | 0.00 | 0.26 | 0.01 | 1019.8 | |
| 20260902123029 | 65 | 253 | 0.0 | 0.0 | 0.00 | 0.27 | 0.01 | 1019.9 | |
| 20260902122531 | 65 | 253 | 0.0 | 0.0 | 0.00 | 0.29 | 0.01 | 1019.9 | |
| 20260902122029 | 65 | 253 | 0.0 | 0.0 | 0.00 | 0.30 | 0.01 | 1019.9 | |
| 20260902121529 | 65 | 253 | 0.0 | 0.0 | 0.00 | 0.30 | 0.01 | 1020.1 | |
| 20260902121030 | 65 | 253 | 0.0 | 0.0 | 0.00 | 0.30 | 0.01 | 1020.1 | |
| 20260902120529 | 65 | 253 | 0.0 | 0.0 | 0.00 | 0.30 | 0.01 | 1020.0 | |
| 20260902120029 | 65 | 253 | 0.0 | 0.0 | 0.00 | 0.30 | 0.01 | 1020.0 | |
| 20260902115529 | 65 | 253 | 0.0 | 0.0 | 0.00 | 0.30 | 0.01 | 1019.9 | |
| 20260902115129 | 65 | 253 | 0.0 | 0.0 | 0.00 | 0.30 | 0.01 | 1019.9 | |
| 20260902114529 | 64 | 253 | 0.0 | 0.0 | 0.00 | 0.30 | 0.01 | 1019.8 | |
| 20260902114029 | 64 | 253 | 0.0 | 0.0 | 0.00 | 0.30 | 0.01 | 1019.9 | |
| 20260902113529 | 64 | 253 | 0.0 | 0.0 | 0.00 | 0.30 | 0.01 | 1019.7 | |
| 20260902113029 | 64 | 253 | 0.0 | 0.0 | 0.00 | 0.30 | 0.01 | 1019.8 | |
| 20260902112529 | 64 | 253 | 0.0 | 0.0 | 0.00 | 0.30 | 0.01 | 1020.0 | |
| 20260902112029 | 64 | 253 | 0.0 | 0.0 | 0.00 | 0.31 | 0.01 | 1020.0 | |
| 20260902111529 | 64 | 253 | 0.0 | 0.0 | 0.00 | 0.32 | 0.01 | 1020.1 | |
| 20260902111029 | 64 | 253 | 0.0 | 0.0 | 0.00 | 0.33 | 0.01 | 1020.2 | |
| 20260902110529 | 64 | 253 | 0.0 | 0.0 | 0.00 | 0.34 | 0.01 | 1020.1 | |
| 20260902110044 | 64 | 253 | 0.0 | 0.0 | 0.00 | 0.35 | 0.01 | 1020.3 | |
| 20260902105529 | 64 | 253 | 0.0 | 0.0 | 0.00 | 0.36 | 0.01 | 1020.2 | |
| 20260902105044 | 64 | 253 | 0.0 | 0.0 | 0.00 | 0.38 | 0.01 | 1020.1 | |
| 20260902104529 | 64 | 253 | 0.0 | 0.0 | 0.00 | 0.39 | 0.01 | 1020.2 | |
| 20260902104029 | 64 | 253 | 0.0 | 0.0 | 0.00 | 0.39 | 0.01 | 1020.0 | |
| 20260902103531 | 64 | 253 | 0.0 | 0.0 | 0.00 | 0.40 | 0.01 | 1019.8 | |
| 20260902103044 | 64 | 253 | 0.0 | 0.0 | 0.00 | 0.40 | 0.01 | 1019.8 | |
| 20260902102529 | 64 | 253 | 0.0 | 0.0 | 0.00 | 0.41 | 0.01 | 1019.9 | |
| 20260902102030 | 64 | 253 | 0.0 | 0.0 | 0.00 | 0.42 | 0.01 | 1019.7 | |
| 20260902101545 | 64 | 253 | 0.0 | 0.0 | 0.00 | 0.45 | 0.01 | 1019.7 | |
| 20260902101045 | 64 | 253 | 0.0 | 0.0 | 0.00 | 0.49 | 0.01 | 1019.9 | |
| 20260902100529 | 64 | 253 | 0.0 | 0.0 | 0.00 | 0.54 | 0.01 | 1019.8 | |
| 20260902100029 | 64 | 253 | 0.0 | 0.0 | 0.00 | 0.58 | 0.01 | 1019.9 | |
| 20260902095529 | 64 | 253 | 0.0 | 2.0 | 0.00 | 0.61 | 0.01 | 1019.8 | |
| 20260902095030 | 64 | 253 | 0.0 | 2.0 | 0.00 | 0.64 | 0.01 | 1019.8 | |
| 20260902094529 | 64 | 253 | 0.0 | 0.0 | 0.00 | 0.68 | 0.01 | 1019.6 | |
| 20260902094029 | 64 | 253 | 0.0 | 0.0 | 0.00 | 0.71 | 0.01 | 1019.6 | |
| 20260902093529 | 64 | 253 | 0.0 | 0.0 | 0.00 | 0.74 | 0.01 | 1019.5 | |
| 20260902093029 | 64 | 253 | 0.0 | 0.0 | 0.00 | 0.76 | 0.01 | 1019.5 | |
| 20260902092529 | 64 | 253 | 0.0 | 0.0 | 0.00 | 0.76 | 0.01 | 1019.5 | |
| 20260902092030 | 64 | 253 | 0.0 | 0.0 | 0.00 | 0.78 | 0.01 | 1019.6 | |
| 20260902091614 | 64 | 253 | 0.0 | 0.0 | 0.00 | 0.79 | 0.01 | 1019.5 | |
| 20260902091029 | 64 | 253 | 0.0 | 0.0 | 0.00 | 0.81 | 0.01 | 1019.4 | |
| 20260902090529 | 64 | 253 | 0.0 | 0.0 | 0.00 | 0.83 | 0.01 | 1019.4 | |
| 20260902090029 | 64 | 253 | 0.0 | 0.0 | 0.00 | 0.84 | 0.01 | 1019.4 | |
| 20260902085559 | 64 | 253 | 0.0 | 0.0 | 0.00 | 0.84 | 0.01 | 1019.4 | |
| 20260902085029 | 64 | 253 | 0.0 | 0.0 | 0.00 | 0.84 | 0.01 | 1019.4 | |
| 20260902084529 | 64 | 253 | 0.0 | 0.0 | 0.00 | 0.84 | 0.01 | 1019.6 | |
| 20260902084030 | 64 | 253 | 0.0 | 0.0 | 0.00 | 0.84 | 0.01 | 1019.5 | |
| 20260902083530 | 64 | 253 | 0.0 | 0.0 | 0.00 | 0.84 | 0.01 | 1019.4 | |
| 20260902083029 | 64 | 253 | 0.0 | 0.0 | 0.00 | 0.84 | 0.01 | 1019.5 | |
| 20260902082559 | 64 | 253 | 0.0 | 0.0 | 0.00 | 0.84 | 0.01 | 1019.4 | |
| 20260902082029 | 64 | 253 | 0.0 | 0.0 | 0.00 | 0.84 | 0.01 | 1019.3 | |
| 20260902081529 | 64 | 253 | 0.0 | 0.0 | 0.00 | 0.84 | 0.01 | 1019.4 | |
| 20260902081029 | 64 | 253 | 0.0 | 0.0 | 0.00 | 0.84 | 0.01 | 1019.5 | |
| 20260902080559 | 64 | 253 | 0.0 | 0.0 | 0.00 | 0.84 | 0.01 | 1019.5 | |
| 20260902080029 | 64 | 253 | 0.0 | 0.0 | 0.00 | 0.84 | 0.01 | 1019.5 | |
| 20260902075530 | 64 | 253 | 0.0 | 0.0 | 0.00 | 0.84 | 0.01 | 1019.4 | |
| 20260902075029 | 64 | 253 | 0.0 | 0.0 | 0.00 | 0.84 | 0.01 | 1019.4 | |
| 20260902074529 | 64 | 253 | 0.0 | 0.0 | 0.00 | 0.84 | 0.01 | 1019.5 | |
| 20260902074029 | 64 | 253 | 0.0 | 0.0 | 0.00 | 0.84 | 0.01 | 1019.3 | |
| 20260902073529 | 64 | 253 | 0.0 | 0.0 | 0.00 | 0.84 | 0.01 | 1019.3 | |
| 20260902073029 | 64 | 253 | 0.0 | 0.0 | 0.00 | 0.84 | 0.01 | 1019.2 | |
| 20260902072529 | 64 | 253 | 0.0 | 0.0 | 0.00 | 0.84 | 0.01 | 1019.2 |